Location: Staunton
(38.1490°N, 79.0720°W)
Time: 14:24:28
(UTC-04:00)

ISS - Pass Details

Date: 25 May 2017
Orbit: 402 x 408 km, 51.6° (Epoch: 29 May)

Event Time Altitude Azimuth Distance (km) Brightness Sun altitude
Rises 22:45:38 0° 268° (W) 2,326 0.5 -21.3°
Reaches altitude 10° 22:48:09 10° 288° (WNW) 1,467 -0.3 -21.6°
Maximum altitude 22:50:33 19° 335° (NNW) 1,060 -0.8 -21.9°
Drops below altitude 10° 22:52:57 10° 22° (NNE) 1,469 -0.6 -22.2°
Sets 22:55:29 0° 41° (NE) 2,330 0.2 -22.5°
